Location: Cahas Mountain Overlook
(37.0833°N, 80.1000°W)
Time: 15:17:12
(UTC-05:00)

ISS - Visible Passes

Search period start: 18 January 2026 00:00
Search period end: 28 January 2026 00:00
Orbit: 413 x 424 km, 51.6° (Epoch: 18 January)

Date Brightness Start Highest point End Pass type
(mag) Time Alt. Az. Time Alt. Az. Time Alt. Az.
18 Jan -1.2 18:04:29 10° NW 18:05:42 12° NNW 18:06:55 10° N visible
25 Jan -1.8 18:58:04 10° NNW 18:59:47 16° NNE 18:59:47 16° NNE visible
26 Jan -1.6 18:10:36 10° N 18:12:10 13° NNE 18:13:44 10° NE visible
26 Jan -1.3 19:46:08 10° NW 19:47:06 18° NW 19:47:06 18° NW visible
27 Jan -3.2 18:58:16 10° NW 19:01:24 37° NE 19:01:36 37° NE visible
